[[{"header":{"parameterUnit":"m.s-1","parameterCategory":1,"la1":30.2991,"la2":30.254,"lo1":-89.0895,"lo2":-89.0444,"dy":0.0017,"dx":0.0017,"nx":28,"ny":28,"refTime":"2023-07-28T03:00:00:Z","depth":0,"parameterNumber":2,"parameterNumberName":"U-component_of_WINDS"},"data":[0,0,0,0,0,0,0,0,0,0,0,0,0,0,0,0,0,0,0,0,0,0,0,0,0,0,0,0,0,0,0,0,0,0,0,0,0,0,0,0,0,0,0,0,0,0,0,0,0,0,0,0,0,0,0,0,0,0,1.4412,1.4414,0,1.454,1.4542,1.4543,1.459,1.459,1.4589,1.4589,1.4719,1.4723,1.4727,0,0,0,0,0,0,0,0,0,0,0,0,0,1.4206,1.421,1.4412,1.4414,1.4415,1.454,1.4542,1.4543,1.459,1.459,1.4589,1.4589,1.4718,1.4722,1.4727,0,0,0,0,0,0,0,0,0,0,0,0,0,1.4311,1.4211,1.4412,1.4454,1.4459,1.454,1.4542,1.4544,1.4591,1.459,1.4589,1.4589,1.4716,1.4722,1.4727,1.4775,0,0,1.4745,1.4748,0,0,0,0,0,0,0,0,1.4305,1.4318,1.4446,1.4451,1.4457,1.4549,1.4517,1.4621,1.4591,1.454,1.4589,1.4588,1.4663,1.4673,1.4698,1.4782,1.4787,1.4746,1.4749,1.4752,1.4753,0,0,0,0,0,0,0,1.4298,1.4313,1.4463,1.4448,1.4454,1.4465,1.448,1.4537,1.4603,1.4545,1.4549,1.4563,1.4666,1.4692,1.4702,1.4789,1.4745,1.4751,1.4754,1.4756,1.4917,1.4918,0,0,0,0,0,0,1.4284,1.4307,1.4459,1.4467,1.4378,1.447,1.4486,1.452,1.4603,1.4615,1.4564,1.4565,1.4683,1.4695,1.4706,1.4767,1.4752,1.4757,1.476,1.4916,1.4917,1.4918,0,0,0,0,0,0,1.4279,1.4297,1.4454,1.4388,1.4409,1.4474,1.4512,1.4523,1.455,1.4617,1.4629,1.4579,1.4683,1.4698,1.4758,1.4772,1.476,1.4765,1.4915,1.4916,1.4917,1.4889,0,0,0,0,0,0,1.4273,1.4295,1.4314,1.4388,1.4412,1.4503,1.4513,1.4526,1.456,1.4563,1.4635,1.4646,1.4684,1.4749,1.4763,1.478,1.4769,1.4914,1.4916,1.4917,1.4889,1.489,1.489,0,0,0,0,0,1.4265,1.4301,1.4315,1.4333,1.4438,1.4504,1.4518,1.456,1.4561,1.458,1.4623,1.4644,1.4768,1.4755,1.4771,1.479,1.4913,1.4915,1.4917,1.4889,1.4889,1.489,0,0,0,0,0,0,1.4227,1.4312,1.4328,1.4389,1.4439,1.4512,1.4538,1.456,1.461,1.4611,1.4661,1.4677,1.4732,1.4767,1.475,1.484,1.4842,1.4847,1.4815,1.4816,1.4816,1.4806,1.4774,0,0,0,0,0,1.4226,1.4274,1.4345,1.4391,1.4416,1.4472,1.4503,1.4531,1.4585,1.4606,1.4654,1.4705,1.4756,1.4788,1.4838,1.4895,1.491,1.4916,1.4916,1.4915,1.4919,1.4951,1.4953,1.4924,1.4924,1.4924,0,0,1.4224,1.4276,1.4303,1.4385,1.4427,1.4474,1.449,1.4539,1.4575,1.4614,1.4673,1.4709,1.477,1.4827,1.4855,1.4858,1.4931,1.4918,1.4917,1.4921,1.4953,1.4955,1.4958,1.4925,1.4925,1.4925,0,0,1.4244,1.4288,1.4332,1.4374,1.4437,1.4475,1.4485,1.4555,1.4581,1.4641,1.4671,1.4713,1.4799,1.4841,1.4873,1.4907,1.4927,1.4922,1.4923,1.4953,1.4955,1.4957,1.4969,1.4972,1.4926,1.4926,1.4926,0,1.4233,1.4306,1.4351,1.4399,1.4434,1.4472,1.4515,1.4554,1.463,1.4653,1.4655,1.4763,1.4807,1.4874,1.4882,1.4907,1.492,1.4914,1.4951,1.4954,1.4957,1.4968,1.4972,1.4924,1.4925,1.4925,1.4925,0,1.4289,1.4339,1.4366,1.4439,1.4477,1.4523,1.4574,1.4607,1.4632,1.4668,1.4728,1.4781,1.4842,1.4861,1.4885,1.4931,1.4931,1.4941,1.4944,1.4958,1.4969,1.4974,1.4923,1.4923,1.4924,1.4924,0,0,1.4289,1.4386,1.4395,1.4428,1.4501,1.454,1.4587,1.4647,1.4673,1.4725,1.4764,1.4836,1.4846,1.4882,1.4912,1.4938,1.4961,1.4946,1.4948,1.4946,1.5013,1.5005,1.5009,1.4975,1.4976,1.4977,1.5008,0,1.4318,1.4404,1.4445,1.4512,1.4558,1.4594,1.4635,1.4683,1.4718,1.4762,1.4801,1.4851,1.486,1.4882,1.491,1.4952,1.4975,1.4951,1.5011,1.5013,1.4995,1.5015,1.5007,1.5034,1.5013,1.5014,1.5014,0,1.4363,1.4414,1.4486,1.4552,1.4573,1.4609,1.4667,1.4708,1.4763,1.4787,1.4827,1.4856,1.4905,1.4905,1.4973,1.4955,1.4983,1.5007,1.5009,1.5016,1.5014,1.5022,1.5044,1.5047,1.5022,1.5022,1.5021,0,1.4355,1.4441,1.4496,1.4523,1.4602,1.4626,1.466,1.4714,1.4747,1.4798,1.4819,1.4875,1.4905,1.4946,1.4989,1.4985,1.5053,1.5056,1.5073,1.5072,1.5086,1.5084,1.5111,1.5104,1.5104,1.5104,1.5104,0,1.4382,1.4425,1.4493,1.4526,1.4574,1.4621,1.4667,1.4703,1.4751,1.4791,1.4826,1.4862,1.4917,1.496,1.4993,1.5044,1.5058,1.5078,1.5086,1.5075,1.5072,1.5093,1.5092,1.5105,1.5105,1.5104,1.5104,0,1.4381,1.4429,1.449,1.4559,1.4578,1.461,1.4669,1.4702,1.4739,1.4789,1.4803,1.4861,1.4913,1.496,1.503,1.5052,1.5104,1.5115,1.5085,1.509,1.5104,1.5102,1.5145,1.5153,1.514,1.514,1.5141,0,1.4395,1.4429,1.4502,1.4531,1.4565,1.4612,1.4646,1.4693,1.4727,1.4791,1.4816,1.4871,1.4918,1.5,1.5048,1.5101,1.5113,1.5124,1.5121,1.5108,1.5112,1.511,1.5113,1.5124,1.5124,1.5124,1.5124,0,1.4415,1.4437,1.4485,1.4541,1.458,1.4627,1.4674,1.4696,1.4751,1.4787,1.4842,1.4878,1.4949,1.5003,1.5061,1.5095,1.5118,1.5124,1.5131,1.5119,1.5101,1.511,1.5084,1.5123,1.5123,1.5123,1.5123,1.5123,1.4422,1.4453,1.4509,1.4561,1.4601,1.4644,1.4679,1.472,1.4766,1.4828,1.4852,1.4907,1.4961,1.5041,1.5075,1.5119,1.5123,1.5133,1.5135,1.5137,1.5134,1.5094,1.5129,1.513,1.513,1.513,1.513,0,1.4443,1.4481,1.4528,1.4593,1.4634,1.4652,1.4705,1.4738,1.4786,1.4834,1.4879,1.4941,1.4993,1.5044,1.5099,1.5124,1.5136,1.5137,1.5135,1.5143,1.5128,1.5116,1.5126,1.5126,1.5126,1.5126,1.5126,1.5126,1.4459,1.4512,1.454,1.4613,1.4651,1.4705,1.4734,1.4773,1.4812,1.4879,1.4923,1.4956,1.5005,1.5064,1.5112,1.5126,1.5145,1.5142,1.5159,1.5144,1.5144,1.5143,1.5133,1.5146,1.5146,1.517,1.517,1.517]},{"header":{"parameterUnit":"m.s-1","parameterCategory":1,"la1":30.2991,"la2":30.254,"lo1":-89.0895,"lo2":-89.0444,"dy":0.0017,"dx":0.0017,"nx":28,"ny":28,"refTime":"2023-07-28T03:00:00:Z","depth":0,"parameterNumber":3,"parameterNumberName":"V-component_of_WINDS"},"data":[0,0,0,0,0,0,0,0,0,0,0,0,0,0,0,0,0,0,0,0,0,0,0,0,0,0,0,0,0,0,0,0,0,0,0,0,0,0,0,0,0,0,0,0,0,0,0,0,0,0,0,0,0,0,0,0,0,0,3.6703,3.6702,0,3.663,3.6629,3.6628,3.6562,3.6561,3.6561,3.656,3.648,3.6479,3.6478,0,0,0,0,0,0,0,0,0,0,0,0,0,3.6781,3.678,3.6703,3.6702,3.6701,3.663,3.6629,3.6628,3.6562,3.6561,3.6561,3.656,3.6481,3.6479,3.6478,0,0,0,0,0,0,0,0,0,0,0,0,0,3.6732,3.678,3.6703,3.666,3.6656,3.663,3.6629,3.6628,3.6563,3.6561,3.656,3.6559,3.6481,3.6479,3.6477,3.6488,0,0,3.6471,3.647,0,0,0,0,0,0,0,0,3.6735,3.6729,3.6667,3.6663,3.6658,3.6604,3.6627,3.6581,3.6563,3.6598,3.656,3.6559,3.6522,3.6517,3.6505,3.6484,3.648,3.6471,3.6469,3.6469,3.6468,0,0,0,0,0,0,0,3.6738,3.6732,3.6674,3.6667,3.6661,3.6643,3.6634,3.6618,3.6567,3.6595,3.659,3.6582,3.6519,3.6508,3.6503,3.6479,3.6471,3.6469,3.6468,3.6467,3.6461,3.6462,0,0,0,0,0,0,3.6749,3.6735,3.6676,3.6672,3.6694,3.6642,3.6633,3.6622,3.6567,3.6558,3.6583,3.6579,3.6512,3.6506,3.65,3.6507,3.6469,3.6467,3.6465,3.646,3.6461,3.6462,0,0,0,0,0,0,3.6751,3.6744,3.6679,3.6702,3.6692,3.6642,3.6631,3.6622,3.661,3.6559,3.6549,3.6581,3.6511,3.6503,3.6491,3.6504,3.6466,3.6464,3.6459,3.646,3.6462,3.6523,0,0,0,0,0,0,3.6753,3.6745,3.675,3.6703,3.6692,3.6674,3.6632,3.6621,3.6607,3.6601,3.6554,3.6545,3.6509,3.6495,3.6489,3.65,3.6462,3.6457,3.6459,3.6461,3.652,3.6527,3.6533,0,0,0,0,0,3.6756,3.6769,3.675,3.6744,3.6696,3.6674,3.6668,3.6628,3.6608,3.6612,3.6579,3.6546,3.6504,3.6494,3.6487,3.6498,3.6456,3.6459,3.6461,3.6517,3.6525,3.6533,0,0,0,0,0,0,3.6818,3.6762,3.6741,3.6739,3.6712,3.6663,3.6666,3.6638,3.6615,3.661,3.656,3.655,3.6543,3.6519,3.651,3.6504,3.6475,3.6477,3.652,3.6528,3.6534,3.654,3.646,0,0,0,0,0,3.6832,3.682,3.6771,3.6775,3.6762,3.6717,3.6706,3.6677,3.6647,3.6634,3.66,3.6571,3.655,3.6538,3.6516,3.6516,3.6504,3.652,3.6527,3.6532,3.6533,3.653,3.6536,3.647,3.647,3.647,0,0,3.6859,3.6827,3.6823,3.6786,3.6762,3.6749,3.6708,3.6696,3.6686,3.6632,3.6619,3.6593,3.6556,3.6551,3.6546,3.653,3.6549,3.6535,3.654,3.6538,3.6533,3.654,3.6545,3.6472,3.6472,3.6472,0,0,3.6903,3.6878,3.6878,3.6855,3.6819,3.6789,3.6789,3.6744,3.6725,3.6712,3.6671,3.6657,3.6623,3.6598,3.6581,3.6616,3.6585,3.661,3.6643,3.6641,3.6646,3.665,3.6661,3.6666,3.6612,3.6612,3.6612,0,3.6941,3.6922,3.6881,3.6872,3.6856,3.6809,3.6807,3.6786,3.6745,3.6734,3.6717,3.6674,3.6646,3.6633,3.6641,3.6629,3.6626,3.6615,3.6649,3.6653,3.6656,3.6666,3.6671,3.6615,3.6615,3.6614,3.6614,0,3.697,3.6958,3.6961,3.6924,3.6909,3.6904,3.686,3.685,3.6823,3.6794,3.678,3.6744,3.6715,3.6709,3.6682,3.6692,3.6683,3.6659,3.6628,3.6667,3.6675,3.6678,3.662,3.6619,3.6618,3.6617,0,0,3.705,3.6991,3.6992,3.6975,3.6932,3.692,3.6912,3.6884,3.6876,3.6849,3.6839,3.6812,3.6789,3.677,3.6739,3.6737,3.6765,3.6712,3.671,3.6722,3.6772,3.6791,3.6796,3.6745,3.6745,3.6746,3.6775,0,3.7086,3.707,3.7033,3.7028,3.7015,3.697,3.6963,3.6935,3.6907,3.6891,3.686,3.6841,3.6812,3.68,3.6796,3.6763,3.6774,3.676,3.6734,3.6733,3.6744,3.6801,3.682,3.685,3.6778,3.6779,3.6779,0,3.7125,3.7103,3.7097,3.7055,3.7048,3.7042,3.7013,3.6999,3.6965,3.6945,3.6924,3.6891,3.6878,3.6851,3.6832,3.6823,3.681,3.6792,3.6792,3.6787,3.6758,3.6796,3.6858,3.6862,3.6784,3.6784,3.6783,0,3.7183,3.7151,3.7143,3.7129,3.708,3.7077,3.7055,3.7021,3.7007,3.6981,3.6971,3.6943,3.6928,3.6907,3.6866,3.6851,3.6851,3.6821,3.6833,3.6834,3.6834,3.6834,3.6894,3.6828,3.6827,3.6827,3.6827,0,3.7226,3.7224,3.7168,3.7164,3.716,3.7116,3.7113,3.7087,3.7057,3.7045,3.7004,3.6993,3.6941,3.6924,3.6892,3.688,3.6873,3.6856,3.6847,3.6859,3.6861,3.6849,3.6845,3.6828,3.6828,3.6828,3.6828,0,3.7289,3.7252,3.7241,3.7195,3.7183,3.7182,3.7142,3.7135,3.7106,3.7091,3.7085,3.7038,3.7015,3.6973,3.6938,3.6917,3.6911,3.6897,3.6923,3.6918,3.6931,3.693,3.6984,3.6989,3.6921,3.6922,3.6922,0,3.7319,3.7317,3.7271,3.7261,3.7242,3.7226,3.7212,3.7168,3.7154,3.7116,3.7113,3.7088,3.7065,3.7031,3.6993,3.6965,3.6949,3.697,3.6945,3.6957,3.6948,3.6949,3.6948,3.6976,3.6977,3.6977,3.6978,0,3.7375,3.7357,3.7338,3.7313,3.7297,3.7275,3.725,3.7244,3.7195,3.7181,3.7158,3.7141,3.7106,3.7081,3.7048,3.7024,3.6992,3.6987,3.6987,3.6999,3.7014,3.7005,3.6938,3.6985,3.6984,3.6984,3.6984,3.6983,3.7421,3.7417,3.7385,3.7365,3.7342,3.732,3.7311,3.7281,3.7262,3.7231,3.7207,3.7186,3.7151,3.7104,3.7082,3.7064,3.7049,3.7051,3.7051,3.7052,3.7056,3.7018,3.7058,3.7058,3.7057,3.7057,3.7057,0,3.7475,3.7452,3.7434,3.7402,3.7386,3.736,3.7331,3.7319,3.7302,3.7273,3.7252,3.7226,3.7201,3.7161,3.7132,3.7125,3.711,3.7119,3.7119,3.7113,3.7072,3.7073,3.7132,3.7132,3.7132,3.7132,3.7132,3.7132,3.75,3.7491,3.7469,3.7448,3.7424,3.7405,3.7391,3.737,3.7347,3.732,3.7299,3.7274,3.724,3.7209,3.7185,3.7173,3.7164,3.7178,3.7162,3.7123,3.7116,3.711,3.7111,3.7177,3.7177,3.7205,3.7205,3.7205]}]]